Printer-friendly version

IAU Minor Planet Center

Minor Planet Center

MPEC 2005-B22 : 2005 BU1

The following Minor Planet Electronic Circular may be linked-to from your own Web pages, but must not otherwise be redistributed electronically.


Read MPEC 2005-B21 Read MPEC 2005-B23


M.P.E.C. 2005-B22                                Issued 2005 Jan. 18, 12:34 UT

     The Minor Planet Electronic Circulars contain information on unusual
         minor planets and routine data on comets.  They are published
   on behalf of Commission 20 of the International Astronomical Union by the
          Minor Planet Center, Smithsonian Astrophysical Observatory,
                          Cambridge, MA 02138, U.S.A.

                  Supported in part by the Brinson Foundation
             Prepared using the Tamkin Foundation Computer Network

                              MPC@CFA.HARVARD.EDU
          URL http://cfa-www.harvard.edu/iau/mpc.html  ISSN 1523-6714

                                   2005 BU1

Observations:
     K05B01U* C2005 01 17.34508 09 17 44.20 +21 21 02.9          19.8   EB022704
     K05B01U  C2005 01 17.34903 09 17 44.25 +21 21 57.3          19.6   EB022704
     K05B01U  C2005 01 17.35966 09 17 44.48 +21 24 25.5          20.2   EB022704
     K05B01U  C2005 01 17.36269 09 17 44.48 +21 25 05.4          20.2   EB022704
     K05B01U  C2005 01 17.37286 09 17 44.66 +21 27 27.5          20.5   EB022704
     K05B01U  C2005 01 17.37617 09 17 44.76 +21 28 12.4          19.8   EB022704
     K05B01U  C2005 01 17.38673 09 17 44.99 +21 30 39.0          20.3   EB022704
     K05B01U  C2005 01 17.38967 09 17 45.01 +21 31 19.2          19.8   EB022704
     K05B01U  C2005 01 17.39971 09 17 45.15 +21 33 37.9          19.7   EB022704
     K05B01U  C2005 01 17.40262 09 17 45.25 +21 34 17.3          19.8   EB022704
     K05B01U  C2005 01 18.00262 09 18 17.02 +23 48 27.8                 EB022246
     K05B01U  C2005 01 18.00307 09 18 17.10 +23 48 34.9                 EB022246
     K05B01U  C2005 01 18.00349 09 18 17.10 +23 48 39.8                 EB022246
     K05B01U  C2005 01 18.00395 09 18 17.08 +23 48 46.6                 EB022246
     K05B01U  C2005 01 18.00482 09 18 17.14 +23 48 56.3                 EB022246
     K05B01U  C2005 01 18.00565 09 18 17.11 +23 49 08.9                 EB022246
     K05B01U  C2005 01 18.00642 09 18 17.13 +23 49 18.7                 EB022246
     K05B01U 5C2005 01 18.22593 09 18 31.70 +24 36 52.5          19.5 R EB022673
     K05B01U  C2005 01 18.22825 09 18 31.47 +24 37 31.4          20.2 R EB022854
     K05B01U 5C2005 01 18.23206 09 18 31.87 +24 38 13.4                 EB022673
     K05B01U  C2005 01 18.23333 09 18 31.46 +24 38 34.3          20.4 R EB022854
     K05B01U  C2005 01 18.23843 09 18 31.81 +24 39 40.3          20.4 R EB022854
     K05B01U 5C2005 01 18.24005 09 18 32.12 +24 39 56.9                 EB022673
     K05B01U 5C2005 01 18.24640 09 18 32.22 +24 41 18.5                 EB022673
     K05B01U  C2005 01 18.27610 09 18 31.02 +24 47 42.8          19.3 R EB022649
     K05B01U  C2005 01 18.27735 09 18 31.04 +24 47 58.4          19.7 R EB022649
     K05B01U  C2005 01 18.27861 09 18 31.10 +24 48 14.0          19.7 R EB022649
     K05B01U  C2005 01 18.27985 09 18 31.11 +24 48 30.4          19.3 R EB022649
     K05B01U  C2005 01 18.47322 09 18 34.65 +25 29 09.3          19.5 V EB022H36
     K05B01U  C2005 01 18.49355 09 18 35.39 +25 33 22.5          19.5 V EB022H36

Observer details:
246 Klet Observatory-KLENOT.  Observer M. Tichy.  1.06-m KLENOT Telescope
    + CCD.
649 Powell Observatory, Louisburg.  Observers R. Fredrick, R. Trentman.
    0.75-m Newtonian reflector + CCD.
673 Table Mountain Observatory, Wrightwood.  Observer J. Young.  0.6-m
    reflector + CCD.
704 Lincoln Laboratory ETS, New Mexico.  Observers M. Blythe, F. Shelly,
    M. Bezpalko, R. Huber, L. Manguso, D. Torres, R. Kracke, M. McCleary,
    H. Stange, A. Milner.  Measurers J. Stuart, R. Sayer, J. Evans, J. Kommers.
    1.0-m f/2.15 reflector + CCD.
854 Sabino Canyon Observatory, Tucson.  Observer J. E. McGaha.  0.36-m f/10.0
    Schmidt-Cassegrain + CCD.
H36 Sandlot Observatory, Scranton.  Observer G. Hug.  0.3-m f/6
    Schmidt-Cassegrain + CCD.

Orbital elements:
2005 BU1
Epoch 2005 Jan. 10.0 TT = JDT 2453380.5                 MPC
M  23.44260              (2000.0)            P               Q
n   0.55471722     Peri.  305.14276     +0.40720397     -0.85379825
a   1.4669713      Node   117.63098     +0.91076099     +0.35292943
e   0.3508704      Incl.   21.47661     +0.06855180     +0.38271317
P   1.78           H   23.8           G   0.15
From 30 observations 2005 Jan. 17-18.

Ephemeris:
2005 BU1                 a,e,i = 1.47, 0.35, 21                  q = 0.9523
Date    TT    R. A. (2000) Decl.     Delta      r     Elong.  Phase     V
2005 01 10    09 08.98   -13 42.1    0.083    1.045   136.2    40.6    20.1
2005 01 12    09 11.88   -03 19.6    0.083    1.053   145.4    32.0    19.9
2005 01 14    09 14.38   +06 43.8    0.086    1.062   153.5    24.4    19.7
2005 01 16    09 16.50   +15 52.8    0.092    1.070   159.2    19.0    19.7
2005 01 18    09 18.27   +23 48.4    0.100    1.079   161.6    16.7    19.9
2005 01 20    09 19.73   +30 27.2    0.109    1.088   160.9    17.2    20.1
2005 01 22    09 20.88   +35 55.9    0.121    1.097   158.6    19.1    20.4
2005 01 24    09 21.78   +40 24.5    0.133    1.107   155.6    21.5    20.7
2005 01 26    09 22.43   +44 03.7    0.146    1.116   152.7    23.9    21.0
2005 01 28    09 22.88   +47 02.7    0.159    1.126   150.0    25.9    21.3
2005 01 30    09 23.16   +49 29.0    0.174    1.136   147.5    27.8    21.5
2005 02 01    09 23.29   +51 28.9    0.189    1.145   145.3    29.3    21.8
2005 02 03    09 23.32   +53 06.9    0.204    1.155   143.3    30.6    22.0
2005 02 05    09 23.28   +54 27.0    0.219    1.166   141.5    31.8    22.2
2005 02 07    09 23.20   +55 32.0    0.235    1.176   139.8    32.8    22.4
2005 02 09    09 23.12   +56 24.2    0.251    1.186   138.3    33.6    22.6

Timothy B. Spahr             (C) Copyright 2005 MPC           M.P.E.C. 2005-B22

Read MPEC 2005-B21 Read MPEC 2005-B23


Our Web policy. Index to the CBAT/MPC/ICQ pages.


Valid HTML 4.01!